User: anonymous   Login
Location: Caltech
(34.1382°N, 118.1253°W)
Time: 03:06:09
(UTC-07:00)
Language:

ERBS - Orbit

View from above orbital plane
View from above orbital plane
View from above satellite
View from above satellite

Ground track
Ground track

The orbit data is extracted from the following two-line orbital elements,

1 15354U 84108B   17232.49712958  .00003504  00000-0  84490-4 0  9990
2 15354  57.0063 221.4374 0007503 199.1111 160.9664 15.43977904808133
Epoch (UTC): 20 August 2017 11:55:51
Eccentricity: 0.0007503
inclination: 57.0063°
perigee height: 429 km
apogee height: 439 km
right ascension of ascending node: 221.4374°
argument of perigee: 199.1111°
revolutions per day: 15.43977904
mean anomaly at epoch: 160.9664°
orbit number at epoch: 80813

The dashed part of the orbit path shows where the satellite is in the earth's shadow,  

DLR